Weather History for Findlay, OH

Change the Weather History Date:

Tuesday, November 12, 2013

  Actual Average Record
Temperature  
Mean Temperature 27 °F -  
Max Temperature 33 °F 46 °F 72 °F (1949)
Min Temperature 21 °F 32 °F 19 °F (1950)
Degree Days  
Heating Degree Days 38    
Moisture  
Dew Point 20 °F    
Average Humidity 73    
Maximum Humidity 82    
Minimum Humidity 61    
Precipitation  
Precipitation 0.00 in - - ()
Sea Level Pressure  
Sea Level Pressure 30.50 in    
Wind  
Wind Speed 10 mph (NW)    
Max Wind Speed 14 mph    
Max Gust Speed 20 mph    
Visibility 10 miles    
Events      
Averages and records for this station are not official NWS values.
T = Trace of Precipitation, MM = Missing Value Source: NWS Daily Summary

Daily Weather History Graph

Daily Weather History Graph

Search for Another Location

Airport:

Trip Planner

Search our weather history database for the weather conditions in past years. The results will help you decide how hot, cold, wet, or windy it might be!

Date:

Astronomy

Nov. 12, 2013 Rise Set
Actual Time 7:18 AM EST 5:18 PM EST
Civil Twilight 6:49 AM EST 5:47 PM EST
Nautical Twilight 6:16 AM EST 6:20 PM EST
Astronomical Twilight 5:44 AM EST 6:53 PM EST
Moon 2:34 PM EST (11/12) 2:05 AM EST (11/12)
Length of Visible Light 10h 58m
Length of Day
9h 59m
Waxing Gibbous, 76% of the Moon is Illuminated
Nov 12
Waxing Gibbous
Nov 17
Full
Nov 25
Last Quarter
Dec 2
New
Dec 9
First Quarter

Hourly Weather History & Observations

Time (EST) Temp. Windchill Dew Point Humidity Pressure Visibility Wind Dir Wind Speed Gust Speed Precip Events Conditions
12:53 AM 28.9 °F 19.8 °F 21.9 °F 75% 30.32 in 10.0 mi North 10.4 mph - 0.00 in   Partly Cloudy
1:53 AM 28.0 °F 18.1 °F 21.9 °F 78% 30.34 in 10.0 mi NNW 11.5 mph - N/A   Scattered Clouds
2:53 AM 27.0 °F 18.0 °F 21.0 °F 78% 30.35 in 10.0 mi NNW 9.2 mph - N/A   Partly Cloudy
3:53 AM 26.1 °F 15.0 °F 19.9 °F 78% 30.37 in 10.0 mi NNW 12.7 mph - N/A   Scattered Clouds
4:53 AM 24.1 °F 14.4 °F 17.1 °F 75% 30.41 in 10.0 mi NNW 9.2 mph - N/A   Clear
5:53 AM 23.0 °F 14.7 °F 17.1 °F 78% 30.43 in 10.0 mi NNW 6.9 mph - N/A   Clear
6:53 AM 21.9 °F 14.5 °F 17.1 °F 82% 30.46 in 10.0 mi NNW 5.8 mph - N/A   Clear
7:53 AM 21.9 °F 13.4 °F 17.1 °F 82% 30.49 in 10.0 mi NW 6.9 mph - N/A   Clear
8:53 AM 25.0 °F 14.8 °F 19.0 °F 78% 30.52 in 10.0 mi NW 10.4 mph - N/A   Clear
9:53 AM 27.0 °F 16.7 °F 19.9 °F 75% 30.53 in 10.0 mi NNW 11.5 mph 18.4 mph N/A   Clear
10:53 AM 28.9 °F 19.2 °F 21.0 °F 72% 30.55 in 10.0 mi NNW 11.5 mph - N/A   Partly Cloudy
11:53 AM 30.0 °F 21.1 °F 21.9 °F 72% 30.55 in 10.0 mi NW 10.4 mph - N/A   Partly Cloudy
12:53 PM 32.0 °F 23.0 °F 21.9 °F 66% 30.53 in 10.0 mi NNW 11.5 mph - N/A   Clear
1:53 PM 33.1 °F 23.9 °F 21.9 °F 64% 30.53 in 10.0 mi NW 12.7 mph - N/A   Partly Cloudy
2:53 PM 32.0 °F 22.1 °F 19.9 °F 61% 30.55 in 10.0 mi NW 13.8 mph - N/A   Scattered Clouds
3:53 PM 32.0 °F 24.2 °F 21.0 °F 64% 30.54 in 10.0 mi NNW 9.2 mph 19.6 mph N/A   Overcast
4:53 PM 32.0 °F 25.6 °F 21.0 °F 64% 30.54 in 10.0 mi WNW 6.9 mph - N/A   Overcast
5:53 PM 30.9 °F 25.2 °F 23.0 °F 72% 30.54 in 10.0 mi West 5.8 mph - N/A   Overcast
6:53 PM 30.0 °F 22.4 °F 19.9 °F 66% 30.54 in 10.0 mi WNW 8.1 mph - N/A   Clear
7:53 PM 28.9 °F 19.8 °F 19.9 °F 69% 30.56 in 10.0 mi WNW 10.4 mph - N/A   Clear
8:53 PM 28.0 °F 20.0 °F 21.0 °F 75% 30.57 in 10.0 mi WNW 8.1 mph - N/A   Clear
9:53 PM 27.0 °F 17.3 °F 19.0 °F 72% 30.57 in 10.0 mi WNW 10.4 mph - N/A   Clear
10:53 PM 25.0 °F 17.1 °F 18.0 °F 75% 30.57 in 10.0 mi WNW 6.9 mph - N/A   Clear
11:53 PM 23.0 °F 15.8 °F 18.0 °F 81% 30.57 in 10.0 mi WSW 5.8 mph - N/A   Clear